Regional Weather Roundup
Issued by NWS

Current Version | Previous Version | Text Only | Print | Product List | Glossary On
Versions: 1 2 3 4 5 6 7 8 9 10 11 12 13 14 15 16 17 18 19 20 21 22 23 24 25 26 27 28 29 30 31 32 33 34 35 36 37 38 39 40 41 42 43 44 45 46 47 48
000
ASUS42 KTBW 311516
RWRFL
FLORIDA REGIONAL WEATHER ROUNDUP
NATIONAL WEATHER SERVICE TAMPA BAY RUSKIN FL
1100 AM EDT TUE MAR 31 2015

NOTE: "FAIR" INDICATES FEW OR NO CLOUDS BELOW 12,000 FEET WITH NO
SIGNIFICANT WEATHER AND/OR OBSTRUCTIONS TO VISIBILITY.


FLZ001>010-012>015-112-114-115-311600-
PANHANDLE FLORIDA

CITY           SKY/WX    TMP DP  RH WIND       PRES   REMARKS
PENSACOLA      MOSUNNY   75  62  64 W15       30.14R
PENSACOLA NAS  PTSUNNY   75  64  68 W8        30.14R
MILTON NAS     MOSUNNY   74  62  66 W18       30.14
CRESTVIEW      SUNNY     75  62  64 W8        30.15S
DUKE FIELD     MOSUNNY   73  62  67 W15G22    30.12F
VALPARAISO     MOSUNNY   76  62  62 NW14      30.13S
MARY ESTHER    MOSUNNY   76  58  53 W8        30.13R
TRI COUNTY     FAIR      73  64  73 VRB3      30.14R
PANAMA CITY    FAIR      75  63  66 W18G24    30.13S
TYNDALL AFB    MOSUNNY   73  66  78 W15       30.15R
APALACHICOLA   PTSUNNY   78  64  61 NW14      30.15S

STATION/POSITION SKY/WX   TEMP    WIND        PRES    WAVE   SWELL
                          AIR SEA DIR/SP/G            HT/PER HT/PER
                          (F)     (DEG/KT/KT) (MB)    (FT/S) (FT/S)
30.1N   87.6W              69 68  260/  8/  8 1020.3R   2/ 8   2/ 8
29.2N   88.2W              71 71  210/  4/  6 1021.5R   3/ 8   2/ 8
28.8N   86.0W              73 74  260/ 10/ 12 1021.8R   3/ 4   2/ 7
PANAMA CITY BEAC           67 64  270/  7/  8 1020.6R
CAPE SAN BLAS    NOT AVBL
TOWER C                    68     230/ 12/ 12 1021.2R
28.5N   84.5W              70 69  240/  6/  6 1021.9R   2/ 4   2/ 4

$$
FLZ011-016>038-118-127-128-134-139-239-311600-
NORTH FLORIDA

CITY           SKY/WX    TMP DP  RH WIND       PRES   REMARKS
MARIANNA       MOSUNNY   71  65  81 W12       30.13R
TALLAHASSEE    CLOUDY    69  64  84 W10       30.14S
PERRY          CLOUDY    69  67  92 W10       30.15F
CROSS CITY       N/A     73  64  73 NW9       30.15S
LAKE CITY      CLOUDY    64  64 100 W7        30.15S
GAINESVILLE    CLOUDY    69  62  78 W6G17     30.16S
MAYPORT NAS    MOSUNNY   70  63  78 VRB6      30.13R
JACKSONVILLE   PTSUNNY   65  60  84 VRB6      30.14R
JAX NAS        PTSUNNY   69  61  75 SW7       30.15S
JAX CRAIG      MOSUNNY   67  61  81 SW8       30.14S
JAX CECIL      CLOUDY    66  63  88 W8        30.15R
FERNANDINA BEA FAIR      72  63  73 W5        30.12S
ST AUGUSTINE   MOSUNNY   72  64  76 W9        30.15R FOG

STATION/POSITION SKY/WX   TEMP    WIND        PRES    WAVE   SWELL
                          AIR SEA DIR/SP/G            HT/PER HT/PER
                          (F)     (DEG/KT/KT) (MB)    (FT/S) (FT/S)
SHELL POINT                69     260/  7/  8   N/A
KEATON BEACH               67     250/  3/  3 1021.3R
CEDAR KEY                  70     260/  7/  9 1021.8R
FERNANDINA                 61 62  260/  5/  6 1019.5R
30.7N   81.3W                 61                N/A     1/11
MAYPORT                    65 62  280/  8/ 11 1020.1S
ST AUGUSTINE               71 62  260/  6/  9 1021.3R

$$
FLZ040-043>046-052-053-057-058-063-144-311600-
INTERIOR CENTRAL FLORIDA

CITY           SKY/WX    TMP DP  RH WIND       PRES   REMARKS
OCALA          PTSUNNY   73  63  68 NW8       30.16S
THE VILLAGES     N/A     73  64  73 W8G14     30.06F
LEESBURG       MOSUNNY   73  63  70 W10       30.17S
SANFORD        MOSUNNY   73  62  68 NW10      30.16S
ORLANDO EXEC   MOSUNNY   75  62  64 NW10      30.17S
ORLANDO INTL   PTSUNNY   74  62  66 W10       30.17S
KISSIMMEE      SUNNY     73  64  73 NW10      30.18S
WINTER HAVEN   MOSUNNY   75  61  61 VRB7      30.19S
LAKELAND       MOSUNNY   73  63  68 NW7       30.18S
BARTOW         MOSUNNY   72  59  64 W7        30.19S
OKEECHOBEE     SUNNY     73  59  60 NW7       30.19F

$$
FLZ041-047-054-059-064-141-147-311600-
EAST CENTRAL FLORIDA

CITY           SKY/WX    TMP DP  RH WIND       PRES   REMARKS
ORMOND BEACH   SUNNY     72  63  73 W7        30.14F
DAYTONA BEACH  MOSUNNY   74  63  68 W8        30.15S
DELAND           N/A    N/A N/A N/A W8        30.16S
NEW SMYRNA BEA SUNNY     75  63  64 NW6       30.16S
JFK SPACE CTR  SUNNY     75  45  34 E7          N/A
CAPE CANAVERAL SUNNY     73  62  66 NW8       30.15S
PATRICK AFB    SUNNY     72  62  69 NW5       30.17S
MELBOURNE      SUNNY     72  61  68 W9        30.17S
VERO BEACH     MOSUNNY   74  59  59 NW8       30.19R
FT PIERCE      SUNNY     75  60  59 NW8       30.18S
STUART         MOSUNNY   72  57  60 N9        30.20

STATION/POSITION SKY/WX   TEMP    WIND        PRES    WAVE   SWELL
                          AIR SEA DIR/SP/G            HT/PER HT/PER
                          (F)     (DEG/KT/KT) (MB)    (FT/S) (FT/S)
28.5N   80.2W              66 70  290/ 10/ 12 1021.6R
28.9N   78.5W              72 75  300/ 12/ 14 1020.7R
TRIDENT PIER               68 71  280/  8/  9 1021.8R
28.4N   80.5W                 71                N/A     1/ 8
27.5N   80.2W                 74                N/A     2/ 9

$$
FLZ050-056-061-142-242-148-248-149-249-151-251-155-255-
160-260-311600-
WEST CENTRAL FLORIDA

CITY           SKY/WX    TMP DP  RH WIND       PRES   REMARKS
CRYSTAL RIVER  CLOUDY    72  63  73 W9        30.18R
INVERNESS      CLOUDY   N/A N/A N/A W3        30.17S
BROOKSVILLE    CLOUDY    73  62  68 W10       30.19R
ZEPHYRHILLS    FAIR      73  61  64 NW6G18    30.19S
CLEARWATER     SUNNY     75  63  66 NW10      30.18S
TAMPA INTL     MOSUNNY   74  63  68 SW7       30.18S
TAMPA EXEC     MOSUNNY   77  63  61 CALM      30.19S
PLANT CITY     MOSUNNY   75  64  69 NW6       30.20S
MACDILL AFB    SUNNY     78  65  64 NW5       30.18S
PETER O KNIGHT SUNNY     75  64  69 W6        30.19S
ST PETERSBURG  PTSUNNY   74  62  66 NW7       30.17S
SARASOTA       SUNNY     73  58  59 W7        30.18R
VENICE         FAIR      73  59  60 W9        30.20S

STATION/POSITION SKY/WX   TEMP    WIND        PRES    WAVE   SWELL
                          AIR SEA DIR/SP/G            HT/PER HT/PER
                          (F)     (DEG/KT/KT) (MB)    (FT/S) (FT/S)
CEDAR KEY                  70     260/  7/  9 1021.8R
28.5N   84.5W              70 69  240/  6/  6 1021.9R   2/ 4   2/ 4
27.3N   84.2W                 71                N/A     1/ 7
CLEARWATER BEACH NOT AVBL
MIDDLE TAMPA BAY           70     300/  7/  8 1022.3R
VENICE                     71 72  310/  6/  7 1021.9S

$$
FLZ066-069-070-075>078-162-262-165-265-311600-
SOUTHWEST FLORIDA AND KEYS

CITY           SKY/WX    TMP DP  RH WIND       PRES   REMARKS
PUNTA GORDA    SUNNY     75  57  53 N8        30.21S
FT MYERS       SUNNY     75  58  55 VRB7      30.18F
SOUTHWEST INTL SUNNY     74  58  57 NE8       30.19S
NAPLES         SUNNY     75  57  53 NE8       30.18F
MARCO ISLAND   SUNNY     73  55  53 E10       30.19F
IMMOKALEE      SUNNY    N/A N/A N/A NE7       30.20S
MARATHON       SUNNY     74  61  63 NE10      30.19S
KEY WEST NAS   SUNNY     77  57  50 NE9       30.19R
KEY WEST INTL  SUNNY     76  58  53 E10       30.19S

STATION/POSITION SKY/WX   TEMP    WIND        PRES    WAVE   SWELL
                          AIR SEA DIR/SP/G            HT/PER HT/PER
                          (F)     (DEG/KT/KT) (MB)    (FT/S) (FT/S)
VENICE                     71 72  310/  6/  7 1021.9S
NAPLES                     69 72   40/  3/  7 1022.1R
26.0N   85.6W              71 74   80/  6/  8 1022.2R   2/ 8   2/ 8
DRY TORTUGAS               72      60/ 14/ 17 1021.9R
NW FL BAY                  68      60/  7/  8 1022.5
SAND KEY                   72      60/ 12/ 16 1022.2R
SOMBRERO KEY               71      30/ 11/ 12 1022.8R
LONG KEY                   69 72  360/  7/  9 1023.1S
MOLASSES REEF              71 76  360/  9/ 12 1022.1R

$$
FLZ067-068-071>074-168-172>174-311600-
SOUTHEAST FLORIDA

CITY           SKY/WX    TMP DP  RH WIND       PRES   REMARKS
W PALM BEACH   MOSUNNY   75  56  51 NE9       30.18R
FT LAUDER-EXEC SUNNY     76  50  40 N7        30.19S
FT LAUDERDALE  SUNNY     76  50  40 N8        30.18S
POMPANO BEACH  SUNNY     76  49  38 N7        30.19S
PEMBROKE PINES SUNNY     77  50  38 N8        30.20S
OPA LOCKA      SUNNY     76  51  41 VRB5      30.19S
MIAMI          SUNNY     75  51  43 N7        30.19F
WEST KENDALL   SUNNY     75  54  47 N6        30.19F
HOMESTEAD      SUNNY     75  55  49 N8        30.19S

STATION/POSITION SKY/WX   TEMP    WIND        PRES    WAVE   SWELL
                          AIR SEA DIR/SP/G            HT/PER HT/PER
                          (F)     (DEG/KT/KT) (MB)    (FT/S) (FT/S)
PORT EVERGLADES            74     320/  5/  8 1022.0F
VIRGINIA KEY               70 75  340/  5/  8 1021.9R
LAKE WORTH                 70 76  360/  8/ 10 1021.7R
SETTLEMENT POINT           74     350/  6/  8 1022.5R

$$




USA.gov is the U.S. government's official web portal to all federal, state and local government web resources and services.